Jefferson, NC

5:39 PM EST on December 05, 2019 (GMT -0500)
Ashe County

Weather History for KGEV - October, 2019

Change the Weather History Date:

Thursday, October 17, 2019

  Actual Average Record
Temperature  
Mean Temperature 44 °F -  
Max Temperature 50 °F 64 °F 76 °F (1992)
Min Temperature 37 °F 39 °F 24 °F (1970)
Degree Days  
Heating Degree Days 22    
Moisture  
Dew Point 31 °F    
Average Humidity 66    
Maximum Humidity 79    
Minimum Humidity 48    
Precipitation  
Precipitation 0.00 in - - ()
Sea Level Pressure  
Sea Level Pressure 29.88 in    
Wind  
Wind Speed 15 mph ()    
Max Wind Speed 30 mph    
Max Gust Speed 47 mph    
Visibility 10.0 miles    
Events      
Averages and records for this station are not official NWS values.
T = Trace of Precipitation, MM = Missing Value Source: Averaged Metar Reports

Daily Weather History Graph

Daily Weather History Graph

Search for Another Location

Airport or City:

Astronomy

Oct. 17, 2019 Rise Set
Actual Time 7:34 AM EDT 6:47 PM EDT
Civil Twilight 7:08 AM EDT 7:13 PM EDT
Nautical Twilight 6:38 AM EDT 7:43 PM EDT
Astronomical Twilight 6:08 AM EDT 8:12 PM EDT
Moon 9:23 PM EDT (10/17) 10:59 AM EDT (10/17)
Length of Visible Light 12h 04m
Length of Day
11h 12m
Waning Gibbous, 87% of the Moon is Illuminated
Oct 17
Waning Gibbous
Oct 21
Last Quarter
Oct 27
New
Nov 4
First Quarter
Nov 12
Full

Hourly Weather History & Observations

Time (EDT) Temp. Windchill Dew Point Humidity Pressure Visibility Wind Dir Wind Speed Gust Speed Precip Events Conditions
12:15 AM 38.5 °F 27.1 °F 29.7 °F 71% 29.78 in 10.0 mi NW 26.5 mph 44.9 mph N/A   Clear
12:35 AM 38.3 °F 26.2 °F 29.8 °F 72% 29.78 in 10.0 mi NW 29.9 mph 47.2 mph N/A   Clear
12:55 AM 37.9 °F 27.1 °F 30.0 °F 73% 29.77 in 10.0 mi NW 23.0 mph 40.3 mph N/A   Clear
1:15 AM 38.3 °F 26.8 °F 30.2 °F 73% 29.78 in 10.0 mi NW 26.5 mph 44.9 mph N/A   Clear
1:35 AM 37.9 °F 26.8 °F 30.2 °F 74% 29.79 in 10.0 mi NW 24.2 mph 38.0 mph N/A   Clear
1:55 AM 38.1 °F 28.8 °F 30.2 °F 73% 29.81 in 10.0 mi WNW 17.3 mph 34.5 mph N/A   Scattered Clouds
2:15 AM 38.1 °F 27.9 °F 30.6 °F 74% 29.79 in 10.0 mi NW 20.7 mph 31.1 mph N/A   Scattered Clouds
2:35 AM 37.9 °F 29.6 °F 30.9 °F 76% 29.81 in 10.0 mi WNW 13.8 mph 26.5 mph N/A   Mostly Cloudy
2:55 AM 37.9 °F 30.9 °F 30.9 °F 76% 29.82 in 10.0 mi NW 10.4 mph 23.0 mph N/A   Overcast
3:15 AM 37.9 °F 28.9 °F 29.8 °F 73% 29.82 in 10.0 mi NW 16.1 mph 33.4 mph N/A   Mostly Cloudy
3:35 AM 37.8 °F 28.6 °F 29.8 °F 73% 29.81 in 10.0 mi NW 16.1 mph 29.9 mph N/A   Overcast
3:55 AM 37.6 °F 27.1 °F 29.8 °F 74% 29.81 in 10.0 mi NW 20.7 mph 29.9 mph N/A   Overcast
4:15 AM 37.8 °F 29.0 °F 29.8 °F 73% 29.82 in 10.0 mi NW 15.0 mph 33.4 mph N/A   Overcast
4:35 AM 37.4 °F 28.2 °F 30.2 °F 75% 29.82 in 10.0 mi NW 16.1 mph 28.8 mph N/A   Overcast
4:55 AM 37.4 °F 28.2 °F 30.4 °F 76% 29.83 in 10.0 mi NW 16.1 mph 33.4 mph N/A   Overcast
5:15 AM 37.4 °F 28.5 °F 30.7 °F 77% 29.83 in 10.0 mi WNW 15.0 mph 28.8 mph N/A   Overcast
5:35 AM 37.4 °F 26.4 °F 30.6 °F 76% 29.82 in 10.0 mi NW 23.0 mph 34.5 mph N/A   Overcast
5:55 AM 37.4 °F 27.8 °F 30.6 °F 76% 29.82 in 10.0 mi WNW 17.3 mph 40.3 mph N/A   Overcast
6:35 AM 37.0 °F 26.7 °F 31.1 °F 79% 29.82 in 10.0 mi WNW 19.6 mph 31.1 mph N/A   Overcast
6:55 AM 37.0 °F 27.4 °F 30.9 °F 79% 29.83 in 10.0 mi WNW 17.3 mph 32.2 mph N/A   Overcast
7:15 AM 37.0 °F 28.1 °F 30.9 °F 79% 29.83 in 10.0 mi WNW 15.0 mph 31.1 mph N/A   Overcast
7:35 AM 37.0 °F 29.8 °F 30.9 °F 79% 29.85 in 10.0 mi WNW 10.4 mph 31.1 mph N/A   Overcast
7:55 AM 37.2 °F 27.6 °F 30.9 °F 78% 29.86 in 10.0 mi NW 17.3 mph 32.2 mph N/A   Overcast
8:15 AM 37.0 °F 27.0 °F 31.1 °F 79% 29.86 in 10.0 mi NW 18.4 mph 26.5 mph N/A   Overcast
8:35 AM 37.2 °F 29.1 °F 30.7 °F 77% 29.87 in 10.0 mi NW 12.7 mph 31.1 mph N/A   Overcast
8:55 AM 37.4 °F 27.5 °F 30.9 °F 77% 29.87 in 10.0 mi NW 18.4 mph 27.6 mph N/A   Overcast
9:15 AM 37.6 °F 28.8 °F 30.2 °F 75% 29.89 in 10.0 mi WNW 15.0 mph 25.3 mph N/A   Overcast
10:15 AM 39.2 °F 32.0 °F 30.9 °F 72% 29.90 in 10.0 mi NW 11.5 mph 18.4 mph N/A   Overcast
10:35 AM 39.2 °F 30.8 °F 30.9 °F 72% 29.90 in 10.0 mi NW 15.0 mph 23.0 mph N/A   Overcast
10:55 AM 40.3 °F 34.9 °F 31.1 °F 70% 29.91 in 10.0 mi West 8.1 mph 21.9 mph N/A   Overcast
11:35 AM 40.8 °F 33.3 °F 31.5 °F 69% 29.92 in 10.0 mi NW 13.8 mph 26.5 mph N/A   Overcast
11:55 AM 41.2 °F 34.5 °F 31.6 °F 69% 29.92 in 10.0 mi WNW 11.5 mph 24.2 mph N/A   Overcast
12:15 PM 42.1 °F 35.7 °F 31.8 °F 67% 29.92 in 10.0 mi NW 11.5 mph 25.3 mph N/A   Mostly Cloudy
12:35 PM 42.8 °F 34.8 °F 31.6 °F 65% 29.92 in 10.0 mi WNW 17.3 mph 29.9 mph N/A   Scattered Clouds
12:55 PM 43.9 °F 36.8 °F 32.0 °F 63% 29.92 in 10.0 mi WNW 15.0 mph 21.9 mph N/A   Scattered Clouds
1:15 PM 44.6 °F 38.4 °F 31.8 °F 61% 29.91 in 10.0 mi WNW 12.7 mph 19.6 mph N/A   Clear
1:35 PM 45.5 °F 39.6 °F 31.6 °F 58% 29.91 in 10.0 mi NW 12.7 mph 23.0 mph N/A   Clear
1:55 PM 45.9 °F 41.2 °F 30.9 °F 56% 29.90 in 10.0 mi WNW 9.2 mph 20.7 mph N/A   Clear
2:35 PM 48.0 °F - 31.6 °F 53% 29.89 in 10.0 mi WNW 8.1 mph 19.6 mph N/A   Clear
2:55 PM 48.4 °F - 31.8 °F 53% 29.88 in 10.0 mi WNW 10.4 mph 18.4 mph N/A   Clear
3:15 PM 48.9 °F - 31.3 °F 51% 29.89 in 10.0 mi NW 11.5 mph 18.4 mph N/A   Clear
3:35 PM 49.8 °F - 31.3 °F 49% 29.89 in 10.0 mi West 5.8 mph - N/A   Clear
3:55 PM 49.8 °F - 31.1 °F 49% 29.89 in 10.0 mi West 8.1 mph 18.4 mph N/A   Clear
4:15 PM 50.0 °F - 31.8 °F 50% 29.89 in 10.0 mi NW 6.9 mph 17.3 mph N/A   Clear
4:35 PM 49.6 °F - 31.6 °F 50% 29.89 in 10.0 mi NW 8.1 mph - N/A   Clear
4:55 PM 50.0 °F - 31.1 °F 48% 29.89 in 10.0 mi West 12.7 mph 19.6 mph N/A   Clear
5:15 PM 49.6 °F - 31.3 °F 49% 29.89 in 10.0 mi Calm Calm - N/A   Clear
5:35 PM 49.1 °F - 31.3 °F 50% 29.89 in 10.0 mi WNW 8.1 mph - N/A   Clear
5:55 PM 48.7 °F - 31.5 °F 51% 29.89 in 10.0 mi WNW 6.9 mph 19.6 mph N/A   Clear
6:15 PM 47.8 °F - 31.1 °F 52% 29.89 in 10.0 mi West 4.6 mph - N/A   Clear
6:35 PM 46.9 °F - 31.5 °F 55% 29.90 in 10.0 mi WNW 3.5 mph 16.1 mph N/A   Clear
6:55 PM 46.4 °F 40.7 °F 31.6 °F 56% 29.90 in 10.0 mi West 12.7 mph 19.6 mph N/A   Clear
7:15 PM 46.4 °F 42.4 °F 31.8 °F 57% 29.91 in 10.0 mi West 8.1 mph - N/A   Clear
7:35 PM 45.7 °F 43.4 °F 32.0 °F 59% 29.92 in 10.0 mi WNW 4.6 mph 24.2 mph N/A   Clear
7:55 PM 45.7 °F 42.0 °F 32.0 °F 59% 29.93 in 10.0 mi West 6.9 mph - N/A   Clear
8:15 PM 45.5 °F 43.2 °F 32.0 °F 59% 29.93 in 10.0 mi NW 4.6 mph - N/A   Clear
8:35 PM 44.4 °F 41.2 °F 32.0 °F 62% 29.94 in 10.0 mi WNW 5.8 mph - N/A   Clear
8:55 PM 44.2 °F 38.8 °F 32.0 °F 62% 29.94 in 10.0 mi WNW 10.4 mph - N/A   Clear
9:15 PM 44.2 °F 39.7 °F 32.0 °F 62% 29.94 in 10.0 mi WNW 8.1 mph 17.3 mph N/A   Clear
9:35 PM 43.7 °F 39.1 °F 32.0 °F 63% 29.95 in 10.0 mi WNW 8.1 mph - N/A   Clear
9:55 PM 43.3 °F 38.6 °F 32.0 °F 64% 29.95 in 10.0 mi NW 8.1 mph 19.6 mph N/A   Clear
10:15 PM 43.0 °F 35.7 °F 32.0 °F 65% 29.95 in 10.0 mi WNW 15.0 mph 23.0 mph N/A   Clear
10:35 PM 42.4 °F 37.5 °F 32.0 °F 67% 29.95 in 10.0 mi NW 8.1 mph 17.3 mph N/A   Clear
10:55 PM 42.3 °F 35.9 °F 32.0 °F 67% 29.95 in 10.0 mi NW 11.5 mph 20.7 mph N/A   Clear
11:15 PM 42.4 °F 36.1 °F 32.0 °F 67% 29.95 in 10.0 mi WNW 11.5 mph 25.3 mph N/A   Clear
11:35 PM 41.9 °F 35.9 °F 32.0 °F 68% 29.95 in 10.0 mi WNW 10.4 mph 23.0 mph N/A   Clear
11:55 PM 41.9 °F 37.5 °F 32.0 °F 68% 29.96 in 10.0 mi NW 6.9 mph 18.4 mph N/A   Clear